Flag for Canada Weather past 2 weeks in Kingston, Ontario, Canada

Now
21 °F

Overcast.


Feels Like: 14 °F
Forecast: 19 / 29 °F
Wind: 6 mph from Northeast

Location: Kingston

Current Time: Dec 21, 2014 at 7:12:35 AM

Latest Report: Dec 21, 2014 at 6:00 AM


Visibility: 15 mi

Pressure: 30.32 "Hg

Humidity: 86%

Dew point: 18 °F

Location of KingstonLocation

Historic Weather in Kingston — Graph

°F

Kingston temperature yesterday

Maximum temperature yesterday: 27 °F (at 1:00 PM)
Minimum temperature yesterday: 12 °F (at 8:00 AM)
Average temperature yesterday: 21 °F

Past Weeks' High & Low Weather Summary

 TemperatureHumidityPressure
High41 °F (Dec 17, 6:00 AM)100% (Dec 6, 7:00 AM)30.80 "Hg (Dec 6, 7:00 AM)
Low12 °F (Dec 20, 8:00 AM)35% (Dec 7, 1:00 PM)29.67 "Hg (Dec 11, 6:00 AM)
Average29 °F81%30.11 "Hg
* Reported Dec 6 6:00 AM — Dec 21 6:00 AM, Kingston, Weather by CustomWeather, © 2014

Note: Actual official high and low records may vary slightly from our data, if they occured in-between our weather recording intervals... More about our weather records

Advertising

Kingston weather history for previous 24 hours

 ConditionsComfort  
Time TempWeatherWind HumidityBarometerVisibility
6:00 AM
Dec 21
21 °FOvercast.6 mph86%30.32 "Hg15 mi
11:00 PM
Dec 20
19 °FPassing clouds.5 mph79%30.33 "Hg14 mi
10:00 PM19 °FClear.7 mph79%30.33 "Hg15 mi
9:00 PM18 °FPassing clouds.3 mph79%30.33 "Hg15 mi
8:00 PM19 °FPassing clouds.3 mph79%30.33 "Hg15 mi
7:00 PM21 °FPassing clouds.5 mph80%30.33 "Hg15 mi
6:00 PM23 °FPassing clouds.3 mph74%30.32 "Hg15 mi
5:00 PM25 °FPartly cloudy.3 mph63%30.30 "Hg15 mi
4:00 PM25 °FPartly sunny.8 mph69%30.29 "Hg15 mi
3:00 PM27 °FMostly cloudy.7 mph64%30.29 "Hg15 mi
2:00 PM27 °FPartly sunny.5 mph64%30.30 "Hg15 mi
1:00 PM27 °FPassing clouds.No wind64%30.31 "Hg15 mi
12:00 PM25 °FPassing clouds.2 mph69%30.32 "Hg15 mi
11:00 AM21 °FPassing clouds.6 mph74%30.33 "Hg15 mi
10:00 AM19 °FPassing clouds.6 mph73%30.34 "Hg15 mi
9:00 AM16 °FPassing clouds.6 mph79%30.35 "Hg15 mi
8:00 AM12 °FPassing clouds.3 mph85%30.36 "Hg15 mi
7:00 AM14 °FPassing clouds.3 mph85%30.33 "Hg15 mi
Weather by CustomWeather, © 2014

See weather overviewHow to use our weather pages